Theta_e
288 288 285 285 284 281 282 280 283 289 291 291 291 290 289 287 286 288 287 288 288 287 285 287 290 289 289 290 290 291 291 290 290 290 291 292 292 291 290 291 291 289 289 289 288 288 288 288 287 287 287 287 287 286 287 286 287 287 287 289 286 286 287 289 286 288 285 286 284 284 284 284 284 286 289 287 285 286 286 287 286 286 287 286 286 289
290 286 282 282 282 283 280 279 281 292 292 291 289 288 287 288 285 287 287 287 287 285 286 289 290 289 288 290 291 290 289 289 289 290 290 291 291 291 291 290 290 289 287 287 288 288 287 287 287 287 286 291 286 287 286 285 286 286 286 286 286 286 286 287 286 288 285 285 285 285 285 284 283 285 285 284 286 287 288 285 285 286 285 286 286 288
284 283 285 285 286 285 280 281 288 291 290 289 288 287 286 285 287 289 289 288 287 288 285 290 289 288 290 288 291 290 289 290 291 291 291 291 291 291 291 291 290 288 288 287 287 287 287 286 287 286 286 286 286 284 285 286 285 285 285 286 286 286 286 286 289 286 286 285 289 285 285 286 285 284 285 285 287 286 285 283 285 286 285 285 286 286
283 283 285 286 285 287 287 289 290 289 289 288 287 287 285 287 289 285 288 290 288 286 286 289 288 289 292 289 289 291 291 291 291 291 291 292 291 291 291 292 291 289 288 288 288 288 287 286 286 285 286 286 286 286 286 285 285 285 288 285 285 286 286 286 286 294 288 288 287 288 287 285 285 285 287 284 283 282 283 286 285 284 285 285 285 285
282 284 286 287 287 289 288 290 290 289 285 282 285 286 285 285 285 288 287 290 291 291 291 290 287 289 291 290 292 290 291 290 291 291 290 291 292 292 292 291 290 289 288 288 289 287 287 286 287 287 287 285 285 286 286 286 285 286 285 286 286 286 286 285 289 290 290 289 285 284 284 285 282 282 281 282 283 283 286 286 285 286 285 285 286 285
283 285 287 288 289 289 289 286 286 288 284 283 283 283 288 287 287 287 287 284 283 285 287 284 279 281 287 292 292 293 288 288 289 288 288 289 290 290 290 291 290 289 288 289 289 289 288 287 287 286 285 285 285 286 287 286 286 285 286 285 285 285 285 286 285 286 288 286 285 283 283 284 281 282 283 282 282 283 284 284 285 286 285 285 285 285
282 287 286 289 288 287 287 285 282 284 286 285 284 284 287 288 287 284 283 284 280 280 285 283 278 272 280 288 292 292 290 292 289 287 289 290 289 288 289 290 290 289 289 288 287 287 287 288 287 287 286 285 286 287 287 285 285 285 285 284 285 285 285 286 285 286 291 286 285 284 284 283 282 281 282 281 281 282 284 285 285 285 285 285 285 285
284 284 285 287 289 288 287 285 285 284 287 282 285 285 288 287 286 283 283 282 281 283 284 280 279 276 278 279 284 289 292 292 294 293 290 289 289 289 289 289 289 288 287 289 289 289 289 289 288 288 288 286 286 286 286 285 285 285 286 285 286 285 289 287 287 286 288 286 284 284 283 286 283 282 284 284 284 284 286 285 284 284 284 285 285 285
282 282 279 283 287 286 283 281 281 283 285 284 285 288 286 286 285 285 285 283 281 281 277 278 280 278 274 278 280 283 287 290 292 294 294 293 291 290 289 289 288 287 288 288 289 289 290 289 289 289 288 287 285 285 285 286 286 285 285 286 285 286 285 285 285 289 285 289 287 284 284 283 285 284 286 286 285 284 284 282 284 284 284 284 285 285
280 282 279 279 280 282 283 281 278 283 285 284 286 287 287 286 284 284 283 284 278 275 275 279 278 274 274 276 281 282 284 286 290 293 295 296 295 293 291 290 289 287 287 288 289 290 289 289 288 287 286 285 285 285 286 286 285 284 284 285 287 286 285 285 284 284 284 284 287 285 284 283 284 284 284 282 283 283 282 282 283 283 284 284 284 285
284 287 285 277 278 282 281 283 280 283 288 288 289 289 287 285 282 280 279 277 271 267 270 277 277 278 272 276 281 282 283 285 287 288 289 290 291 292 291 291 291 290 289 289 289 288 288 287 286 285 285 285 285 284 284 284 284 284 284 284 284 285 284 284 284 284 284 283 283 283 283 282 282 283 282 282 283 283 283 283 283 283 284 284 285 285
283 282 280 281 281 277 281 287 288 287 287 287 284 286 287 284 284 281 276 274 266 264 270 275 276 276 271 275 281 283 282 283 285 285 286 287 288 289 288 289 289 289 289 288 287 288 287 287 286 285 285 284 284 284 284 283 283 284 284 284 284 285 284 284 285 284 283 283 283 283 282 282 283 282 283 282 282 282 282 282 282 283 283 284 285 285
282 281 282 282 284 284 285 287 285 286 286 288 287 285 281 274 274 272 272 270 261 264 276 275 275 276 276 277 284 281 281 283 284 285 287 286 286 285 285 285 286 287 287 287 287 286 285 285 285 285 285 284 284 284 283 283 283 283 284 284 284 285 284 284 283 284 283 283 283 283 283 282 284 283 282 282 282 282 282 282 282 283 283 284 285 284
280 282 283 281 281 284 284 285 283 283 284 285 284 279 275 270 265 269 271 268 265 271 275 275 276 276 277 280 279 280 280 282 282 283 284 284 284 284 284 284 282 283 284 284 284 283 283 283 283 283 283 283 283 282 282 282 284 283 284 283 284 285 284 283 284 283 284 284 284 284 283 283 283 283 283 282 282 283 282 283 282 282 283 284 283 284
272 277 280 280 279 281 281 283 283 283 284 282 280 278 273 270 267 268 271 268 267 270 273 275 274 270 275 279 281 279 281 280 279 279 280 281 281 281 282 282 282 282 281 281 282 283 283 283 283 283 283 282 282 282 282 281 282 282 282 283 283 283 283 282 283 283 284 284 284 283 284 284 283 283 282 282 284 283 283 283 283 283 283 283 284 283
273 274 281 282 280 279 280 281 283 285 284 282 280 279 277 273 273 269 269 261 261 270 270 275 273 273 279 281 281 278 278 281 279 280 281 282 282 282 284 284 284 283 283 282 282 282 282 282 281 282 282 282 282 282 282 283 282 282 283 283 283 282 282 282 284 283 283 283 283 283 283 283 285 287 286 285 285 284 284 283 283 283 282 283 283 283
278 276 280 280 282 280 280 281 283 283 279 282 281 275 279 278 276 268 267 269 266 266 267 267 275 277 279 280 280 277 281 281 278 279 279 280 281 281 283 283 283 283 283 284 284 283 284 283 283 283 283 284 284 284 284 284 283 283 282 282 283 282 281 282 283 283 282 282 282 283 283 283 283 283 283 283 284 284 284 283 282 282 282 282 283 283
278 277 281 280 282 282 282 281 280 280 282 279 277 279 279 276 273 267 266 260 261 264 265 269 271 273 274 273 277 280 279 281 279 280 279 281 281 283 282 282 282 283 283 283 283 283 283 283 284 284 284 284 284 284 284 284 282 281 281 282 284 282 284 284 283 283 284 283 283 283 283 283 282 282 283 283 283 282 282 282 282 282 282 281 282 282
281 278 281 281 280 282 281 284 283 281 281 284 281 279 280 272 272 271 268 262 262 263 260 263 270 270 273 275 276 279 278 279 280 280 281 283 283 282 282 282 282 281 282 283 282 282 283 282 283 283 284 282 282 282 281 281 280 281 282 282 281 284 285 283 282 283 283 282 284 284 283 282 282 282 282 282 282 282 282 281 281 281 280 281 281 281
279 278 278 283 282 281 280 282 278 276 281 279 279 278 273 273 265 270 268 265 265 259 261 267 266 272 276 276 276 279 278 278 278 280 280 281 281 281 281 281 281 281 281 281 281 281 281 281 281 281 282 282 283 281 281 280 281 283 282 282 283 283 282 282 282 282 283 283 282 282 281 281 281 282 282 282 281 281 281 281 280 280 280 280 281 279
276 280 274 281 282 283 280 277 275 276 275 280 276 272 275 271 273 273 267 270 270 261 257 263 264 268 275 276 275 276 277 278 279 280 279 279 279 279 279 280 280 279 280 281 280 280 280 279 279 279 279 279 280 280 281 281 281 282 281 282 281 283 283 282 283 282 283 281 281 282 281 281 281 281 281 281 281 280 280 280 280 279 279 279 279 279
272 274 275 275 280 275 276 276 276 275 276 275 275 274 274 271 270 269 267 268 260 266 260 260 263 269 275 276 276 276 274 278 278 277 279 279 278 277 277 277 277 279 278 278 278 278 279 279 279 280 280 280 279 280 281 281 280 282 282 282 281 281 282 283 283 283 282 281 281 281 281 281 280 280 280 280 280 280 279 279 279 279 278 278 278 278
277 272 274 270 275 277 274 275 274 275 276 275 275 275 271 269 266 259 265 266 264 266 264 263 266 265 276 276 276 275 276 276 276 277 279 278 277 276 277 277 277 277 278 278 279 279 279 279 279 280 280 280 280 281 280 280 281 281 281 281 281 282 282 281 282 281 280 281 281 281 280 280 280 280 280 280 279 279 279 279 278 279 278 277 277 277
280 265 269 269 272 274 274 269 272 269 275 275 274 272 273 274 274 270 270 269 266 262 265 265 263 266 274 276 275 276 276 276 276 276 278 277 277 278 277 277 277 277 277 278 278 279 279 279 279 279 281 281 281 281 281 280 280 281 281 281 280 281 281 282 281 280 280 281 280 279 280 280 279 280 279 279 278 278 278 278 278 278 277 276 276 275
274 272 273 264 267 265 266 269 271 270 270 268 271 272 271 272 269 267 264 259 267 265 264 266 262 264 275 276 275 276 275 278 278 277 277 278 278 277 277 277 277 277 278 278 279 279 279 279 280 280 280 280 280 280 280 280 281 281 281 281 281 281 281 281 280 280 280 280 280 280 280 279 279 279 279 278 278 277 277 277 277 277 276 275 275 274
273 268 268 267 266 262 263 263 267 268 270 268 271 272 272 270 268 270 272 264 268 266 265 265 260 268 272 274 279 277 276 278 276 273 274 277 277 277 278 277 277 278 278 278 279 279 279 279 279 279 279 279 279 279 279 280 280 280 280 280 280 280 282 280 279 279 280 279 280 279 279 279 279 278 278 278 277 277 276 276 276 275 275 275 274 274
264 263 262 264 270 271 266 266 269 273 271 270 269 272 271 271 269 270 269 265 266 261 265 267 270 273 273 276 276 278 276 276 277 278 277 276 276 276 276 277 277 277 278 279 279 279 278 278 279 279 279 279 279 279 279 280 280 280 280 280 280 280 280 279 279 279 280 279 279 279 278 278 278 278 277 277 276 276 276 275 275 274 274 274 273 273
264 270 263 261 263 267 268 269 270 272 269 269 270 271 270 270 270 270 267 268 269 270 262 267 267 271 272 273 275 275 276 274 274 274 275 274 275 276 277 277 282 279 278 277 278 278 279 278 278 278 279 279 279 279 280 279 279 280 280 281 280 279 279 280 279 279 279 279 279 278 278 278 278 277 277 276 276 275 275 274 274 274 273 274 273 273
267 269 265 267 267 268 267 267 268 269 269 269 268 269 270 270 269 268 265 270 269 268 267 270 267 269 271 272 276 276 277 278 277 277 276 275 275 276 277 278 278 278 277 279 279 278 278 279 279 278 278 279 278 278 279 279 279 279 279 279 280 279 279 279 279 279 279 279 278 278 278 278 278 277 276 275 275 274 274 274 274 273 273 273 273 273
268 263 263 262 264 265 266 268 267 267 267 267 266 267 269 269 270 269 266 268 268 266 265 269 267 271 273 272 273 276 276 276 274 274 276 277 278 278 278 278 277 277 277 278 279 279 278 278 278 278 278 278 278 278 279 279 279 279 279 279 278 279 279 278 278 279 278 278 278 278 277 277 277 276 275 274 274 274 273 273 273 273 272 272 272 272
272 266 271 261 263 264 265 268 266 265 265 265 267 267 267 267 268 267 266 266 267 265 265 266 267 271 274 277 276 274 274 276 276 277 277 276 277 278 278 278 277 278 277 277 277 278 278 277 277 277 278 278 278 279 279 279 279 278 279 279 279 280 279 278 278 278 278 278 277 277 277 277 276 275 274 274 273 273 273 273 273 272 272 272 272 272
270 264 262 260 267 265 265 263 267 263 265 265 263 264 265 266 267 267 269 271 269 269 266 268 268 271 274 274 276 275 277 278 278 277 277 278 277 278 278 278 278 278 278 278 277 277 278 278 278 278 279 279 279 278 278 279 279 279 280 279 279 279 278 278 278 278 278 277 277 277 277 276 275 274 273 273 273 273 273 272 272 272 272 271 271 271
267 267 266 261 267 262 265 264 263 263 265 268 272 274 272 271 270 271 270 271 273 271 270 266 272 274 274 276 277 277 277 277 277 277 277 277 277 278 278 279 278 278 278 277 278 279 279 278 278 279 278 278 279 279 279 279 279 280 280 279 279 278 278 278 278 278 277 277 277 276 276 275 274 273 273 273 273 272 272 272 272 271 271 271 271 271
268 268 262 262 270 265 264 260 263 266 264 264 271 272 275 274 272 273 273 273 273 275 274 275 274 275 275 276 277 277 278 278 278 277 278 280 280 278 277 277 277 277 277 277 278 278 278 278 278 279 279 279 279 279 279 279 279 279 279 278 278 277 277 278 277 277 277 277 276 276 275 274 273 272 272 272 272 272 272 271 271 271 271 271 270 270
268 262 261 259 266 268 264 266 269 265 266 271 275 273 274 274 274 276 273 273 274 275 274 274 274 274 275 277 277 276 277 276 277 277 278 278 278 279 279 278 278 278 279 278 278 278 278 278 278 278 278 278 278 278 279 279 278 278 278 278 278 277 277 277 277 277 276 276 275 275 274 273 272 272 272 272 272 272 271 271 271 271 270 270 270 269
265 266 266 266 261 263 266 264 263 266 270 274 275 274 275 275 273 275 275 277 276 275 277 276 276 275 276 277 277 276 276 277 277 277 278 278 278 279 278 279 279 279 279 278 279 278 278 278 279 279 279 279 280 279 278 279 278 278 278 277 277 277 277 277 277 276 276 275 274 274 273 272 272 272 271 272 271 271 271 270 270 270 270 270 269 269
271 267 267 267 265 269 263 261 271 271 275 275 275 273 274 275 274 276 273 275 276 278 277 277 277 277 277 277 276 276 276 277 279 281 278 278 278 278 279 280 278 279 279 279 279 279 278 278 279 278 279 278 278 278 279 278 278 278 277 277 277 277 277 277 276 276 275 274 273 272 272 272 272 271 271 271 271 270 270 270 270 269 270 269 268 268
274 273 268 272 267 260 266 264 267 268 266 269 274 274 276 275 277 275 277 278 277 276 279 279 278 278 277 277 278 276 277 281 277 276 279 280 278 279 279 279 279 278 278 278 278 278 278 278 278 278 278 278 279 278 278 277 277 277 277 277 277 276 277 277 276 276 274 274 273 272 272 272 271 271 271 271 270 270 270 270 270 269 269 268 267 267
272 271 269 270 268 266 267 268 263 267 269 273 276 278 276 275 276 273 276 271 276 276 278 280 279 278 279 279 277 276 278 274 275 276 277 279 279 279 280 279 278 278 278 278 279 279 279 279 279 278 278 278 280 279 278 277 277 278 277 276 276 276 276 276 276 275 274 273 272 272 272 271 271 271 270 270 270 270 269 269 268 268 268 267 266 266
267 262 267 268 266 262 260 266 266 263 270 279 274 276 277 274 276 278 270 268 277 276 278 279 279 279 279 278 278 278 278 272 275 276 277 279 281 280 280 280 279 279 279 278 277 278 278 278 278 279 279 279 279 278 277 277 278 277 277 276 276 277 276 276 276 275 273 272 272 271 271 271 271 270 270 270 269 269 268 268 267 267 266 266 266 265
266 267 265 269 260 266 271 262 263 269 276 275 275 275 275 275 277 271 267 276 278 277 278 279 280 279 279 278 279 279 280 278 278 279 279 277 279 280 278 278 278 278 279 278 280 280 278 278 279 279 279 278 278 277 277 278 278 277 276 276 276 276 277 276 275 273 273 272 272 271 271 271 269 268 268 268 267 267 266 267 266 266 265 265 265 265
263 260 264 260 263 266 262 269 273 269 276 275 275 277 275 277 269 266 275 278 277 277 278 279 279 278 279 280 280 279 277 277 278 278 278 278 279 279 279 278 278 278 278 278 278 278 278 278 278 278 278 277 277 277 277 277 278 277 276 276 277 277 276 275 274 273 272 272 271 270 269 268 267 266 267 265 265 266 265 265 265 265 264 263 263 263
269 269 265 266 264 262 261 265 265 268 274 278 277 276 276 275 275 275 277 277 278 277 278 278 278 278 278 280 279 280 278 278 278 278 278 277 278 279 278 278 278 279 280 279 279 277 278 278 278 278 278 278 277 276 277 277 277 276 275 276 277 276 275 274 273 272 272 270 269 268 268 266 264 265 264 264 263 264 263 263 261 262 262 263 263 262
269 273 264 262 268 265 264 264 266 273 276 279 282 279 277 280 278 278 279 280 277 277 278 279 278 279 279 279 279 278 277 277 278 277 277 277 277 277 277 277 277 277 277 277 277 278 277 278 277 278 277 277 276 276 276 277 277 275 273 275 275 273 271 272 271 271 271 269 268 267 265 264 263 262 262 262 262 262 261 260 259 260 259 260 260 259
275 274 271 275 271 270 267 272 275 274 276 280 280 278 278 277 278 278 278 279 280 278 277 279 281 279 278 279 278 278 278 277 278 277 278 279 278 278 278 278 278 278 277 277 278 277 276 278 278 277 277 277 277 276 275 275 277 273 274 275 274 272 271 271 270 271 270 268 267 265 263 262 262 261 260 260 261 260 260 260 258 259 257 257 258 259
275 276 273 277 275 274 275 279 278 277 276 278 281 279 279 280 277 277 277 279 280 279 280 281 279 280 278 278 279 277 278 278 278 278 278 278 277 277 277 277 277 276 276 276 276 276 277 276 275 275 276 277 276 276 274 275 276 275 275 274 273 272 271 270 269 269 268 267 267 266 263 262 261 260 259 259 258 258 258 257 258 258 258 258 259 259
270 272 275 275 274 276 274 275 276 280 277 278 282 282 280 279 279 277 276 278 278 278 279 279 279 279 279 278 280 281 280 278 278 278 277 277 277 277 277 277 277 277 277 277 278 276 276 274 276 276 275 276 276 276 274 273 275 275 274 273 273 272 271 270 270 269 267 266 265 264 264 265 263 262 262 260 260 260 258 258 259 257 258 261 262 260
275 273 277 272 272 275 274 276 276 276 276 277 278 280 281 282 281 278 279 278 278 278 278 279 278 277 278 278 279 280 279 277 278 279 278 278 278 278 277 277 277 277 277 277 276 275 275 276 276 276 275 277 277 276 274 273 274 273 272 272 271 270 270 271 271 270 269 267 266 265 265 265 265 263 261 260 259 260 261 259 258 257 257 261 262 262
275 277 271 272 276 275 277 279 279 278 279 280 278 277 281 282 281 280 279 279 278 277 278 277 278 279 279 281 279 279 279 278 278 279 278 278 277 277 277 277 277 277 277 276 276 275 278 276 276 277 276 277 277 275 274 272 272 270 271 271 269 270 271 271 271 271 269 267 267 266 265 264 264 263 263 262 259 258 259 259 259 260 259 263 264 260
276 275 273 274 272 270 275 279 278 276 273 276 279 281 281 281 280 280 278 278 278 279 278 279 279 277 278 278 279 279 280 280 278 278 278 278 278 277 277 277 277 276 276 276 275 275 276 274 276 276 276 277 275 274 273 272 271 269 269 269 269 270 270 270 270 270 269 268 268 267 266 265 265 264 262 260 257 257 258 263 265 265 264 264 267 268
279 279 277 276 274 275 279 279 279 281 279 279 282 279 279 279 280 280 279 280 280 281 281 281 280 279 279 279 278 279 280 280 279 277 277 277 277 277 277 277 277 276 277 275 274 273 274 276 274 273 273 276 274 272 272 272 271 269 269 269 270 270 270 270 270 270 269 268 267 267 266 266 266 264 262 261 259 257 258 258 257 266 269 269 267 268
Wind_Speed
0 7 6 6 5 2 1 1 1 3 11 12 12 11 9 12 7 3 3 2 2 6 7 3 7 6 4 3 3 3 3 2 2 3 2 2 2 3 4 5 5 5 8 3 4 4 4 4 3 3 3 3 3 2 1 1 1 1 2 1 3 2 2 1 1 1 1 0 2 0 1 2 2 3 3 4 3 4 3 4 3 4 4 4 5 4
5 9 4 2 2 2 3 2 3 13 11 14 12 13 9 8 8 3 2 3 3 5 3 2 6 5 3 3 2 2 2 3 3 2 3 3 4 3 4 5 5 6 3 4 5 4 3 4 4 3 3 3 3 4 3 3 4 3 2 2 4 3 1 2 1 0 1 1 0 1 3 2 3 4 5 4 5 5 5 3 3 4 4 5 4 4
6 5 2 4 2 1 1 0 2 15 14 8 12 10 12 5 8 5 6 3 3 7 2 1 5 3 3 1 3 4 3 1 2 4 4 5 4 4 5 6 5 3 6 4 5 4 5 4 4 4 4 4 4 4 4 4 3 4 4 3 3 3 3 3 2 1 1 1 1 1 1 1 3 1 1 2 5 3 4 4 2 3 4 5 5 5
8 2 6 5 0 2 4 7 14 12 9 10 10 11 10 8 7 5 6 7 5 4 6 2 5 2 4 0 3 4 4 3 3 5 5 5 6 7 7 7 6 6 6 6 6 6 4 3 4 4 4 4 3 4 5 5 4 4 4 4 4 4 4 4 3 2 2 0 0 0 1 1 3 4 3 4 3 3 4 6 4 3 4 5 5 4
4 2 4 1 1 4 10 7 12 11 8 7 4 9 10 7 3 5 6 6 9 9 5 6 4 1 3 2 3 2 4 2 2 2 3 4 5 4 2 3 4 6 6 7 6 6 5 5 6 6 5 2 4 5 6 5 5 4 5 5 4 5 4 4 3 2 0 1 2 3 2 1 2 1 2 4 5 4 3 4 6 7 4 5 4 4
6 3 1 2 3 5 12 8 5 11 8 4 4 2 9 9 15 10 5 4 5 4 4 0 2 2 3 5 5 2 1 4 2 4 6 6 6 4 6 8 5 6 5 7 7 6 5 5 5 4 4 4 5 7 7 4 4 4 5 4 4 4 4 4 3 1 0 0 1 3 5 7 4 6 6 6 4 7 7 7 5 6 4 4 4 4
1 5 2 5 7 9 9 6 3 0 9 8 1 2 6 12 12 7 2 3 3 4 1 2 3 2 1 6 8 4 3 6 2 6 8 6 6 5 7 7 7 7 7 5 5 5 6 7 5 6 5 6 6 9 3 3 4 4 5 4 4 4 5 4 3 0 0 1 0 1 1 1 3 4 5 3 2 4 5 4 5 6 5 3 4 5
5 7 4 2 9 7 7 8 3 2 11 3 0 4 7 14 10 5 9 6 3 1 1 5 3 2 4 3 2 3 6 7 9 8 6 6 6 8 8 8 7 7 6 6 7 8 7 6 5 8 7 6 8 4 2 4 4 5 6 4 4 4 5 4 1 0 1 2 2 1 1 1 3 4 7 5 6 3 3 5 5 5 5 4 3 4
4 4 6 2 7 6 5 1 4 2 6 4 1 5 6 7 6 8 9 6 2 4 1 4 4 1 3 3 2 0 6 9 12 11 9 7 7 8 8 8 7 6 6 7 7 9 8 8 8 6 6 4 3 4 5 5 4 4 3 3 3 5 4 3 1 1 1 1 1 2 1 4 3 3 5 4 3 4 3 4 5 4 4 5 4 3
2 1 3 1 1 5 0 2 2 2 10 1 5 7 8 8 8 7 6 8 2 3 2 1 4 1 5 3 1 2 2 8 10 11 12 10 8 6 7 7 6 5 5 6 9 7 5 4 4 4 3 3 5 5 4 4 3 3 2 3 3 5 3 2 2 1 1 1 1 2 2 3 6 4 5 3 5 4 3 4 5 4 5 5 5 5
0 3 3 4 2 1 3 1 1 2 10 10 6 11 8 8 6 4 6 4 5 1 3 2 3 1 2 3 5 5 6 6 5 4 4 4 6 7 5 5 5 5 7 7 6 5 5 2 2 1 2 4 4 3 3 3 3 3 3 3 4 5 3 2 1 1 2 1 2 3 3 4 5 5 4 5 6 5 4 5 5 4 5 3 4 4
6 1 3 1 2 1 1 7 7 6 7 5 4 7 10 7 6 7 5 6 4 3 4 2 1 1 4 3 3 6 2 2 2 4 4 4 5 5 4 4 5 5 5 4 4 5 3 4 4 2 4 3 4 4 4 3 3 3 2 2 4 5 2 1 1 1 3 2 2 2 3 4 4 3 3 4 5 4 4 4 5 5 4 5 5 5
8 6 1 3 3 6 5 14 4 5 3 7 9 7 9 1 4 2 6 1 0 4 0 2 1 1 6 6 0 2 5 4 5 3 2 3 4 4 4 5 5 4 4 4 4 4 3 4 4 4 4 4 4 4 4 4 3 2 1 1 1 6 2 2 2 2 3 2 2 2 2 3 2 3 3 3 3 3 3 3 4 4 5 5 6 5
2 2 9 7 3 4 1 11 3 4 1 7 7 5 7 5 3 3 1 1 3 4 4 1 1 2 4 6 3 3 2 2 3 4 4 3 4 5 5 5 4 3 2 3 3 3 3 3 3 3 3 3 3 3 3 3 1 1 0 1 1 5 3 3 2 2 3 3 3 1 2 3 3 2 1 3 3 3 2 2 2 3 3 4 3 4
5 6 7 6 2 4 4 5 2 6 5 3 1 1 4 7 6 5 4 4 5 5 3 2 1 4 4 3 2 4 2 3 3 3 3 3 3 4 5 3 2 3 2 2 1 1 2 3 2 2 2 3 3 3 3 2 2 1 1 1 1 4 4 4 4 3 4 4 3 2 2 2 1 1 2 2 2 2 2 2 2 3 2 2 4 5
1 2 2 2 3 2 3 2 1 5 7 1 2 2 5 0 3 5 4 4 2 1 1 1 4 1 2 0 3 1 2 1 3 3 2 1 3 3 2 4 4 4 4 4 3 3 3 2 2 2 2 2 2 2 1 2 2 3 3 2 1 2 3 3 4 4 3 3 3 2 2 2 1 0 0 0 1 2 2 2 2 2 3 3 3 4
0 6 4 6 3 5 3 2 3 1 4 3 2 1 1 2 9 6 3 3 1 4 3 0 7 4 6 2 1 2 1 1 3 3 3 2 3 2 4 4 4 4 4 4 4 4 4 4 3 1 1 1 1 2 3 2 2 2 2 3 3 3 3 3 2 3 2 2 2 3 2 2 2 2 3 3 4 3 3 3 3 3 3 3 4 4
6 3 1 4 6 1 1 2 2 4 1 6 1 4 2 2 6 4 3 3 4 3 4 2 2 6 3 3 2 1 1 0 1 1 2 1 1 4 3 3 3 3 2 1 2 2 2 1 2 2 1 1 2 2 3 3 2 1 1 0 1 2 2 2 2 2 2 2 2 3 3 3 2 3 4 4 4 2 4 4 4 4 5 4 4 3
2 8 4 3 1 4 3 0 5 3 3 1 2 4 1 1 1 3 5 1 1 1 2 3 2 4 4 5 1 4 4 4 2 1 0 1 1 2 3 3 4 3 4 4 4 4 4 3 2 2 2 3 2 1 1 2 2 2 1 0 1 1 1 2 2 1 1 1 1 2 2 3 3 4 4 3 4 5 6 5 4 4 3 3 4 4
2 5 2 1 1 2 3 4 1 4 4 3 2 2 0 2 1 3 1 2 5 1 2 3 2 4 7 5 6 5 6 6 4 1 4 2 0 1 1 2 2 3 3 3 3 3 2 2 3 2 2 2 2 2 2 2 2 1 1 1 1 0 2 2 2 1 2 2 3 3 3 4 4 4 5 4 5 6 5 4 4 3 4 4 3 3
1 1 5 0 1 1 3 4 0 0 1 1 2 2 1 3 1 4 2 2 0 5 4 1 2 5 6 4 4 3 7 8 7 6 4 3 1 2 2 2 2 2 2 1 1 2 2 3 3 3 2 3 3 2 2 2 2 1 2 3 3 2 3 3 2 1 2 3 3 4 5 4 4 5 4 5 5 6 4 3 3 3 3 3 4 3
3 4 7 0 4 3 0 1 0 1 1 0 1 1 3 5 2 2 2 1 2 2 2 3 4 6 6 1 3 2 2 4 4 3 4 2 2 2 2 2 2 2 1 2 2 3 3 3 3 4 3 2 2 2 3 4 3 4 4 2 2 2 1 1 1 2 3 3 4 5 4 4 4 4 4 6 5 5 4 4 4 3 3 4 4 5
1 4 7 5 1 1 1 1 1 1 0 1 1 0 3 1 5 2 1 2 2 1 3 2 0 3 1 1 1 3 2 2 2 2 1 2 3 3 4 4 4 4 4 3 4 4 3 3 3 3 3 3 3 3 3 3 3 3 3 3 3 3 2 1 1 2 3 4 5 4 4 4 4 4 5 6 5 5 4 3 3 3 4 5 5 5
5 5 5 1 3 2 1 1 0 4 0 0 0 1 1 1 0 3 2 4 5 0 0 0 1 4 2 1 2 2 3 3 2 4 3 2 3 5 4 3 3 2 2 4 4 3 3 3 3 3 5 6 5 4 4 3 2 2 2 3 2 3 3 3 3 3 3 4 5 3 4 4 3 5 5 5 3 4 3 3 3 3 6 5 4 5
1 1 7 3 1 2 2 1 1 0 1 1 1 1 1 1 3 2 5 0 2 6 4 6 2 2 1 3 1 0 1 1 2 4 5 4 4 4 3 3 3 3 3 3 3 4 4 4 5 4 4 4 4 4 3 3 2 2 3 3 3 3 2 2 2 3 3 4 5 4 5 4 4 5 5 4 3 4 3 4 5 5 5 4 4 4
4 3 4 6 7 3 2 1 5 5 5 2 0 1 0 3 5 2 1 1 0 1 2 1 4 7 5 3 0 1 1 1 3 3 3 4 4 3 3 3 3 3 3 3 4 4 4 3 3 3 4 4 3 3 3 2 2 3 3 3 2 2 2 2 2 3 4 3 5 4 4 4 4 4 3 3 3 3 4 5 5 4 4 4 5 5
4 2 3 4 7 8 4 2 2 1 1 1 1 3 3 1 2 2 4 3 4 3 4 7 3 3 2 2 2 4 1 4 4 3 3 4 4 5 4 5 3 3 3 3 4 4 3 2 4 3 3 3 3 3 2 2 3 3 3 3 3 1 1 2 3 3 4 4 4 4 4 4 3 3 3 3 4 4 5 4 4 4 5 4 5 5
4 3 0 6 4 1 1 2 0 1 1 1 3 3 2 3 3 3 4 3 5 7 4 3 3 1 6 4 6 6 6 5 5 5 5 4 5 4 3 2 4 3 3 3 2 1 2 2 2 3 3 3 3 3 3 3 1 1 2 2 1 2 3 2 3 3 4 4 4 4 3 3 2 3 3 4 4 4 3 4 4 4 3 4 5 5
2 2 1 2 1 1 1 1 2 1 0 1 2 3 6 5 5 6 4 3 6 2 7 1 4 4 5 7 9 9 8 9 8 7 5 3 2 1 1 1 2 2 2 2 1 2 2 2 2 3 3 3 3 3 3 3 2 2 2 1 1 2 3 1 3 3 3 3 4 3 2 2 2 3 4 4 4 4 5 5 4 3 3 3 4 4
5 1 1 3 1 1 2 2 3 0 1 1 2 5 3 7 7 6 2 2 6 5 1 2 3 11 9 7 8 10 7 5 2 1 1 1 1 1 0 2 3 4 3 1 0 1 1 2 3 3 3 3 3 3 3 3 2 2 3 3 2 2 2 2 3 4 4 4 3 2 2 2 3 4 4 5 5 5 4 4 3 3 3 4 4 4
1 0 4 0 1 2 2 1 1 3 1 4 3 2 2 2 1 2 0 1 1 6 5 2 2 9 8 10 7 1 2 0 2 3 3 3 3 2 2 3 3 4 3 3 2 1 2 3 3 3 3 3 3 3 3 2 2 2 2 1 1 1 1 2 4 3 4 4 2 2 2 4 3 3 5 4 5 4 4 4 3 3 4 4 4 5
4 1 2 1 1 1 1 2 1 2 2 3 8 5 5 4 4 5 5 9 6 6 2 2 3 8 7 1 0 1 1 1 4 4 3 4 3 2 3 4 4 4 3 2 2 2 2 2 2 2 2 3 3 3 2 2 1 1 2 1 1 1 1 3 3 5 4 3 3 3 3 3 3 5 5 5 4 4 3 3 3 4 4 5 5 6
2 8 4 2 2 1 1 1 2 4 2 5 11 14 17 7 1 0 3 3 6 8 8 5 7 4 3 2 5 4 1 3 3 5 5 4 4 4 4 4 4 3 3 2 2 2 3 3 3 3 3 3 3 2 2 1 1 1 1 0 1 1 3 3 4 4 4 3 3 3 3 3 4 4 5 4 3 3 3 3 4 4 5 5 5 5
2 5 3 1 1 1 3 2 0 1 1 6 1 3 10 14 15 7 6 8 7 7 4 5 4 2 2 2 7 7 6 5 4 4 4 3 2 3 3 3 3 3 3 3 4 4 4 3 3 4 4 4 4 3 3 1 2 1 0 0 1 3 3 4 3 4 4 3 3 3 3 3 4 4 3 2 2 3 3 4 4 3 3 4 4 5
3 3 2 1 1 0 0 1 1 1 10 3 1 3 2 3 5 9 4 2 4 9 5 5 5 4 6 6 5 5 5 2 2 4 5 5 4 4 3 3 4 5 5 3 3 3 4 4 3 3 3 2 2 1 0 0 1 0 2 1 2 2 4 3 4 4 3 3 3 3 3 3 4 3 2 2 3 3 3 3 3 3 4 4 4 5
4 5 3 2 2 2 2 1 2 4 2 2 1 1 1 3 2 2 6 9 11 13 14 9 9 6 4 4 4 3 3 4 4 5 8 5 5 5 4 5 5 6 4 5 5 4 3 4 4 4 3 1 1 1 0 1 0 2 2 2 3 3 3 4 4 3 3 3 3 3 3 3 3 2 2 3 3 3 3 3 3 4 5 4 4 4
7 5 2 1 0 1 2 4 8 4 3 0 1 3 7 5 7 8 5 5 10 12 13 9 8 5 4 4 4 2 2 1 2 7 3 5 5 5 7 6 7 6 5 3 4 4 4 3 3 3 2 1 1 1 0 0 1 3 3 3 2 3 3 4 4 3 3 3 3 3 2 2 2 2 3 3 4 4 3 4 4 4 4 4 4 5
0 0 3 2 1 3 2 2 3 2 2 4 7 2 3 1 4 2 2 6 1 5 10 10 8 8 6 2 0 1 0 1 5 4 1 1 4 7 5 3 3 3 3 2 2 3 3 3 2 2 2 1 1 1 1 2 3 3 3 2 2 3 3 3 3 3 3 3 3 2 2 2 2 3 3 3 4 4 3 3 2 3 4 4 5 5
4 5 4 3 2 1 1 1 2 1 3 3 2 1 2 1 3 1 3 4 3 8 9 11 10 8 9 8 4 3 3 2 6 4 3 4 4 5 5 5 4 3 3 4 4 4 3 2 2 2 1 1 0 0 1 3 3 3 2 2 3 3 3 3 3 3 4 4 3 3 2 2 3 3 2 3 3 3 4 4 4 3 3 3 3 4
3 2 1 1 1 2 4 2 3 4 1 1 2 1 1 2 2 0 1 4 2 6 9 9 11 11 9 5 7 6 7 5 5 4 3 6 6 5 5 4 3 2 3 3 3 3 1 1 2 1 1 2 3 1 2 3 3 3 3 3 3 3 4 4 4 3 4 4 4 3 3 2 2 2 2 2 3 2 3 3 3 4 3 3 3 4
0 0 3 5 3 3 3 2 3 6 4 3 2 3 3 3 2 3 4 3 2 7 8 9 8 7 8 8 7 7 8 4 3 3 0 0 2 3 4 3 3 2 3 2 0 2 2 2 3 4 5 4 2 2 3 3 3 2 3 3 3 5 4 4 4 5 5 5 4 3 3 2 2 2 1 1 2 2 2 3 3 4 4 4 4 4
1 1 0 3 2 3 5 3 6 5 6 4 1 3 2 2 1 3 3 1 4 5 5 6 6 5 8 10 8 6 3 3 1 0 0 2 5 4 4 2 2 3 3 1 2 1 1 2 3 3 3 3 2 2 3 3 3 3 3 3 5 5 4 4 5 5 5 5 4 3 3 2 2 1 1 1 1 2 2 2 3 3 3 3 3 5
5 4 4 3 2 3 2 0 3 2 0 5 9 2 0 2 4 3 2 0 2 4 9 6 6 6 7 7 6 5 1 1 3 4 4 3 4 4 4 4 4 5 4 2 2 3 3 4 4 5 5 3 2 2 3 4 4 4 3 5 5 3 4 4 4 4 5 4 4 3 3 2 1 1 1 2 2 1 1 1 2 3 3 4 4 5
3 1 1 3 7 4 2 3 2 3 3 8 11 6 7 8 1 4 5 2 1 4 7 6 5 7 7 6 7 5 5 3 3 4 4 4 5 4 2 3 3 3 3 3 2 4 5 4 4 4 4 3 2 2 3 5 5 4 4 6 2 4 4 5 5 4 5 3 3 3 2 2 1 1 1 2 2 1 2 3 3 2 3 3 3 4
7 3 5 0 3 5 5 7 5 4 4 8 7 1 2 3 1 4 2 4 6 5 3 4 8 6 8 7 4 5 3 5 5 3 4 4 5 5 4 5 6 6 5 5 5 4 4 6 5 4 4 3 3 3 4 4 5 4 4 2 5 4 5 5 4 4 4 5 4 3 2 2 1 1 2 2 2 4 4 3 3 4 3 3 3 4
1 1 2 0 5 4 6 8 1 1 1 6 8 6 2 0 1 3 3 3 4 5 9 8 6 7 6 5 5 3 5 4 5 4 5 4 4 3 2 2 3 3 3 1 2 4 6 4 2 3 5 4 4 3 3 4 4 5 4 3 6 7 6 7 5 4 4 4 4 4 3 3 1 1 2 3 2 2 1 2 3 4 4 3 3 3
2 1 1 2 2 1 5 2 3 6 3 6 11 9 6 5 4 4 3 4 2 5 7 4 4 7 8 9 8 7 7 5 5 5 4 3 4 5 4 5 5 4 5 6 6 4 4 4 4 5 5 6 4 4 3 4 4 4 3 5 5 6 6 6 5 5 4 4 4 3 3 3 2 1 2 2 3 4 3 1 1 1 2 3 5 5
3 4 2 4 1 4 5 1 4 5 5 5 6 6 9 11 9 6 5 3 1 3 3 5 4 3 6 6 8 7 6 4 5 6 4 5 5 4 5 5 6 4 5 5 3 5 4 5 6 6 5 7 5 4 4 3 4 3 3 4 4 5 5 5 5 5 5 5 4 3 3 3 3 2 2 1 1 3 4 3 1 1 2 3 4 5
2 5 4 4 5 7 7 11 11 5 7 8 7 9 10 7 7 7 7 6 4 3 3 3 4 5 8 7 6 6 5 5 7 6 5 4 4 4 5 6 5 6 4 4 5 5 8 6 7 7 6 7 4 3 4 4 3 3 4 4 5 6 6 5 4 4 6 5 4 4 2 2 2 2 1 0 1 2 2 3 4 3 3 3 3 2
5 5 3 2 1 4 8 8 4 1 4 4 7 13 12 11 7 6 5 5 6 6 5 5 5 3 5 4 6 7 7 6 6 5 6 6 6 6 5 5 5 5 5 4 3 5 5 5 6 5 6 6 3 3 4 4 3 3 3 4 5 6 6 5 5 5 5 5 4 5 3 3 2 2 1 1 1 2 3 4 6 5 4 3 4 7
10 10 8 6 7 7 9 9 7 5 5 6 2 3 8 5 7 9 10 11 11 11 9 7 5 4 5 6 4 7 7 6 6 5 5 4 7 7 6 6 5 5 6 4 4 4 6 7 5 5 5 5 3 4 4 4 4 4 4 4 5 5 5 5 5 4 4 4 4 4 4 3 2 2 1 1 1 2 3 3 2 7 6 3 5 9
Wind_Direction
127 112 129 145 124 0 10 203 219 105 110 105 102 113 114 106 80 46 30 179 343 78 40 41 104 111 103 135 154 152 153 177 195 196 191 210 224 229 242 240 244 245 246 271 279 275 269 280 287 281 294 301 301 285 290 301 275 241 229 285 273 275 359 356 21 10 54 16 339 9 23 288 281 315 323 318 337 355 335 329 331 337 349 351 350 352
78 92 31 350 282 248 278 289 204 101 106 117 114 115 107 107 99 14 45 348 359 106 39 62 95 92 97 107 177 153 170 213 192 217 210 213 219 236 239 253 246 248 302 308 298 287 287 276 282 287 281 276 269 265 253 250 245 248 272 233 258 295 305 273 198 189 170 202 178 201 263 282 285 330 345 327 339 333 320 319 331 346 355 350 351 348
57 85 9 321 305 234 257 107 128 110 112 107 119 120 106 87 110 114 50 18 349 81 91 59 104 79 70 110 172 196 214 211 192 199 212 201 227 230 233 242 254 281 271 299 274 278 268 272 276 274 268 264 238 265 257 251 272 267 264 251 257 268 264 256 226 174 249 217 224 142 258 7 308 254 230 255 269 300 306 306 333 356 359 351 347 350
100 349 334 322 140 132 65 99 93 81 76 111 126 129 138 168 133 105 8 59 26 119 150 146 83 41 313 212 207 199 197 220 203 201 213 201 219 225 224 221 231 238 254 261 255 257 265 265 269 274 261 249 266 265 268 259 245 255 257 255 255 258 253 259 252 229 239 219 139 228 246 248 194 265 317 299 278 318 339 343 355 15 0 347 340 342
87 341 325 32 120 129 104 105 104 103 92 14 68 117 131 156 33 96 155 109 85 63 82 103 82 56 270 278 237 222 201 225 229 239 245 250 234 240 287 292 235 233 228 245 262 264 262 264 251 240 246 239 245 246 243 242 237 231 242 240 237 246 249 249 262 258 312 1 357 347 340 23 349 1 345 347 338 344 341 332 351 342 343 338 337 338
49 5 324 82 72 103 97 66 66 113 84 71 24 119 135 117 107 114 126 96 35 39 36 98 68 280 228 234 243 181 98 229 220 207 236 233 229 221 240 242 239 243 232 229 240 245 249 253 275 277 260 241 242 246 240 228 239 241 254 251 254 260 263 258 258 259 135 55 12 356 3 346 360 329 333 333 314 324 334 329 312 319 339 338 336 346
78 325 39 118 99 88 85 85 308 57 112 103 323 96 124 115 115 117 143 74 57 131 309 46 135 249 306 224 216 222 215 250 175 208 235 232 230 220 232 234 230 231 243 244 256 266 265 255 254 268 254 236 240 245 250 238 238 239 250 251 249 252 266 260 266 228 190 321 322 282 271 231 264 277 282 236 253 280 302 313 314 311 321 349 344 342
356 3 25 359 101 92 96 86 351 59 109 48 328 112 124 116 114 127 89 79 129 105 11 43 78 121 327 285 272 246 231 246 259 244 233 223 224 228 232 233 231 227 230 231 238 243 241 246 232 246 244 232 235 270 266 245 243 237 241 238 249 257 261 262 266 218 176 246 256 275 279 238 239 233 265 294 299 292 291 315 313 316 317 336 356 349
57 1 17 7 82 75 88 123 302 47 85 149 166 114 89 103 110 97 84 89 120 108 3 344 352 49 271 268 314 31 215 239 241 247 260 250 227 233 239 241 241 231 223 218 231 237 235 233 233 238 259 257 269 260 250 245 249 254 257 259 267 269 264 286 320 290 304 293 274 243 260 296 262 245 265 285 291 302 311 314 315 323 324 340 350 1
311 125 320 248 57 100 280 276 224 105 93 298 138 96 100 84 66 69 89 93 28 74 219 340 1 162 284 283 352 356 233 249 236 228 234 244 252 239 232 242 246 246 239 236 238 246 249 243 245 241 258 288 252 250 253 267 279 281 278 264 274 273 279 333 351 355 347 319 289 281 270 265 290 291 297 320 304 305 324 321 314 325 342 349 347 343
124 45 133 81 56 160 154 20 207 135 108 148 116 91 67 56 64 49 63 80 58 29 259 274 319 137 301 256 200 148 216 206 236 276 270 273 271 271 273 269 256 241 239 240 247 254 266 285 296 352 269 257 285 298 299 284 273 265 274 302 303 281 345 7 339 330 280 232 208 227 239 246 267 288 311 324 315 323 342 336 325 342 335 336 338 345
40 356 34 330 114 34 191 66 24 63 106 122 95 116 91 39 33 36 359 40 89 265 259 289 305 317 182 292 264 234 267 221 176 208 252 271 272 281 296 292 277 267 266 273 267 271 283 298 294 299 282 294 297 316 319 318 331 339 339 349 315 304 351 345 299 260 257 244 236 223 229 247 253 274 285 286 290 314 311 314 321 327 340 350 350 2
34 8 255 25 246 80 91 92 18 11 11 85 106 68 101 60 44 6 12 4 148 179 269 317 220 25 253 221 207 284 247 261 224 207 240 273 293 303 310 301 289 279 270 258 259 266 272 245 262 287 293 309 307 327 330 323 326 336 351 29 313 291 307 314 297 290 282 274 273 240 244 255 258 243 244 264 286 285 293 318 333 345 348 349 357 346
342 244 41 345 9 21 37 113 149 46 5 107 116 127 96 101 50 139 274 341 332 284 265 254 263 265 253 293 228 225 254 234 245 244 253 250 267 291 296 309 307 303 267 273 287 288 274 269 266 260 282 307 310 310 307 302 296 291 239 221 220 280 312 301 314 317 332 325 323 308 261 256 249 269 262 261 257 292 297 302 315 337 337 329 321 340
95 51 1 14 51 347 42 66 154 147 125 121 108 111 161 134 156 166 182 179 208 182 295 274 90 237 134 222 189 216 252 285 263 261 257 250 250 263 273 277 316 10 3 344 313 282 282 290 285 288 285 287 296 292 296 297 294 306 328 347 314 320 329 354 334 347 350 334 335 314 270 268 281 262 271 270 252 272 326 0 20 350 330 341 350 7
47 68 311 299 258 344 29 329 82 91 76 46 164 92 68 135 141 121 191 142 165 139 52 204 214 195 198 275 287 306 294 27 354 9 12 354 333 337 14 16 13 15 13 15 23 17 3 328 322 327 316 290 280 291 301 342 348 4 355 356 318 279 299 323 342 348 337 312 314 324 346 334 300 298 306 357 19 29 57 25 29 349 15 18 7 1
195 47 325 322 28 49 360 316 12 40 139 234 69 88 188 151 98 106 44 68 128 52 239 150 320 295 300 322 358 357 84 346 2 355 9 340 327 5 35 2 5 1 9 11 22 21 21 28 33 33 37 28 29 29 21 356 355 344 334 2 352 341 332 328 322 313 318 312 359 1 17 31 59 72 66 58 44 41 38 54 41 37 24 22 19 1
126 127 7 54 48 355 36 70 107 42 142 77 79 198 111 129 122 121 148 334 55 146 250 46 250 305 19 247 331 75 94 254 347 337 313 310 355 58 358 358 350 350 340 343 21 29 35 37 29 7 8 21 356 355 352 353 344 326 291 285 321 321 336 335 352 345 345 352 28 31 42 43 56 75 66 65 75 76 68 40 34 28 30 15 359 3
59 86 348 26 186 300 5 34 23 25 34 100 189 167 99 138 203 350 89 70 90 259 292 310 294 258 190 251 333 251 197 222 246 301 29 102 34 21 353 347 348 353 19 20 6 8 5 355 340 333 330 323 327 307 285 307 332 349 4 269 209 260 276 298 318 310 0 31 56 75 79 80 63 61 68 69 68 57 55 44 33 36 17 12 11 9
42 110 335 323 124 307 23 50 146 304 349 33 64 38 356 96 151 109 184 173 114 204 50 290 41 246 203 217 188 217 197 198 195 218 217 201 219 296 318 330 328 338 341 337 346 336 322 309 306 306 314 327 327 326 326 333 341 17 334 347 340 325 29 22 28 22 58 45 95 95 74 51 64 64 66 55 60 56 54 42 38 27 24 12 5 5
65 47 123 281 302 88 127 3 135 55 98 49 37 334 10 27 213 107 34 68 185 160 172 193 325 277 263 212 165 222 199 187 176 187 211 226 261 256 251 259 287 287 293 299 294 302 303 303 308 310 299 290 302 292 312 341 327 313 350 16 8 11 1 24 359 49 82 96 83 81 66 59 56 56 59 64 59 65 51 39 35 29 13 8 21 1
66 27 125 330 69 4 266 16 232 179 239 178 169 188 168 114 112 122 245 56 71 89 220 113 247 270 272 177 205 250 233 192 207 159 190 238 253 256 263 265 230 269 265 256 275 281 293 301 312 315 324 331 353 347 4 349 359 12 10 342 355 21 37 8 26 77 87 69 72 72 71 62 58 62 65 66 53 56 43 32 28 15 19 36 12 23
142 137 96 72 116 72 251 271 252 339 87 141 120 282 134 104 100 93 111 260 37 42 112 150 100 275 267 250 241 253 279 233 245 199 215 241 248 253 259 253 268 235 258 280 282 287 280 283 291 295 296 310 320 316 332 337 348 335 332 360 8 20 349 1 43 61 74 72 68 68 65 68 60 64 65 65 51 51 37 24 22 22 34 26 21 9
97 80 67 335 316 328 311 351 351 38 120 61 349 88 107 183 227 173 160 174 135 179 72 2 236 249 290 321 275 261 259 260 242 205 216 258 255 260 255 282 286 312 296 286 276 271 279 301 312 358 2 346 340 341 334 317 309 320 359 3 357 17 351 25 49 54 74 78 69 68 72 63 63 66 62 63 51 53 35 31 27 28 35 26 11 3
73 315 111 85 10 338 343 348 3 315 70 202 189 208 147 85 68 161 102 46 94 220 166 118 232 291 279 339 317 6 357 275 242 240 203 232 268 258 274 277 277 282 297 314 325 329 338 9 4 340 324 322 319 322 320 319 316 355 354 1 8 355 6 39 31 69 70 86 83 61 71 63 63 70 63 63 53 48 40 36 37 30 30 15 9 359
92 187 103 134 140 151 210 249 240 228 231 225 128 82 315 116 137 102 183 34 312 272 117 156 253 255 275 310 354 315 326 263 255 244 243 220 245 282 291 295 301 314 303 312 313 341 355 320 315 342 344 334 323 309 308 307 332 3 14 2 359 337 36 33 50 71 83 83 87 74 69 69 65 65 65 60 54 49 41 40 35 28 22 22 5 2
122 86 83 151 153 184 197 212 269 342 52 192 244 159 186 42 108 58 100 91 213 192 188 236 186 322 306 224 256 253 251 219 231 246 241 244 259 260 258 273 285 291 294 297 295 297 303 9 359 334 322 311 294 296 295 323 351 11 11 354 0 10 70 35 75 72 81 77 87 85 74 70 74 72 66 60 58 48 42 37 32 28 24 12 7 357
78 75 343 111 124 184 179 165 251 21 161 226 148 197 151 144 166 128 153 207 167 102 305 262 217 177 258 231 227 233 244 255 257 261 274 276 255 244 263 282 297 305 291 296 288 322 7 328 316 320 301 299 316 328 348 347 337 336 330 323 331 11 43 36 80 78 81 91 86 87 87 86 79 75 63 62 53 49 42 36 32 26 16 9 2 352
132 142 231 59 311 275 242 264 348 13 196 209 200 169 176 185 148 169 229 195 147 181 211 230 176 203 255 223 213 213 200 204 211 219 222 237 282 315 316 290 303 281 284 305 318 336 355 328 296 293 302 306 332 337 336 338 338 354 356 344 25 41 34 44 96 87 95 90 95 95 99 100 81 62 58 51 53 44 35 31 24 18 9 1 357 346
90 45 173 61 169 357 354 14 356 187 311 323 236 221 198 162 201 197 209 202 188 215 206 231 195 238 249 253 216 222 217 205 228 273 292 301 265 304 242 259 255 268 272 272 268 295 276 255 270 273 297 308 313 321 330 329 325 347 348 336 342 35 357 86 91 108 97 95 101 107 97 86 61 54 53 49 43 40 29 22 14 5 1 0 353 342
92 228 91 274 64 315 338 352 35 64 116 305 272 232 195 234 249 232 191 294 8 297 250 186 285 288 261 215 223 347 49 47 322 299 268 257 253 235 234 253 260 259 261 259 265 264 254 265 267 289 290 274 287 282 281 271 282 325 340 343 337 14 336 100 107 95 108 109 112 104 75 62 56 53 50 44 43 33 24 10 3 4 2 357 347 343
60 179 55 80 102 308 351 21 300 27 18 211 284 256 195 159 201 201 191 204 152 205 123 123 296 266 277 6 203 359 29 150 216 255 276 252 220 204 215 245 241 242 242 239 246 260 274 270 271 265 263 271 273 275 265 280 313 357 354 330 12 339 82 101 104 109 102 107 93 70 63 65 59 53 45 40 32 21 10 360 7 7 1 349 344 340
130 131 147 132 88 261 287 10 313 341 349 316 255 221 197 219 218 18 280 232 219 137 124 161 230 219 260 272 150 201 188 237 258 240 245 272 243 202 209 224 237 244 231 225 235 246 244 237 234 241 258 262 258 261 260 224 309 320 293 331 327 76 94 95 108 107 97 81 76 69 64 58 59 53 43 32 15 5 4 10 7 5 356 349 339 334
120 115 138 193 158 245 309 321 238 53 302 240 239 293 175 189 195 175 222 210 214 182 192 197 206 261 268 215 176 197 188 215 198 234 202 203 191 213 236 234 231 232 242 241 231 232 243 253 257 244 234 243 255 244 252 219 225 246 244 227 88 107 103 109 96 100 99 86 74 68 68 59 58 52 40 16 10 3 11 6 6 356 346 330 338 342
133 71 116 164 90 230 334 6 64 247 237 237 311 339 55 53 164 215 262 245 210 231 272 288 277 248 220 199 199 202 209 265 303 270 275 233 208 214 207 216 220 208 215 222 245 242 232 229 244 266 280 255 236 242 267 330 192 153 76 76 92 84 108 103 110 96 100 90 75 66 59 60 53 49 21 12 7 10 7 356 349 352 350 341 349 346
139 109 168 42 107 79 64 69 101 242 232 322 121 53 179 88 134 125 296 256 208 205 209 228 240 243 233 228 245 238 237 273 287 247 237 241 191 180 179 198 206 200 212 218 204 224 217 218 217 218 231 237 245 282 184 229 327 113 98 54 93 101 106 116 105 109 102 90 78 72 61 64 55 36 18 14 11 8 358 349 353 348 345 333 342 338
136 108 95 97 238 184 199 163 233 308 318 39 326 236 172 172 175 172 208 277 210 189 177 208 219 243 252 252 241 280 271 301 355 303 255 201 196 202 183 191 191 200 205 224 191 218 217 215 209 227 214 253 240 256 264 221 122 128 114 84 91 110 121 113 112 118 114 103 94 83 66 67 62 36 22 18 7 1 348 346 344 353 349 340 345 339
35 306 232 127 265 122 137 317 338 11 298 278 234 271 250 231 155 194 97 283 280 200 185 175 195 207 218 230 275 225 3 91 308 282 292 212 189 188 231 259 261 243 226 233 267 261 262 254 246 239 197 219 279 246 208 176 155 128 97 105 120 122 121 121 131 139 121 114 108 103 95 78 63 46 27 9 0 343 333 338 339 3 348 352 344 342
50 79 125 136 140 90 86 174 226 177 248 211 268 284 245 88 113 90 61 296 263 179 186 175 189 199 191 183 185 138 103 165 244 250 257 205 203 203 196 233 224 221 221 212 200 207 208 182 177 136 131 145 179 240 155 153 138 102 114 135 146 143 144 152 156 152 139 134 127 113 102 73 63 53 31 3 343 344 340 352 355 348 345 345 334 320
54 346 46 38 93 188 134 121 257 200 190 11 226 259 186 153 145 74 6 287 247 185 184 175 187 191 193 169 148 150 149 188 247 250 222 199 197 197 189 203 238 240 235 234 254 222 180 124 101 90 169 196 218 226 184 155 123 125 138 169 156 163 175 178 171 155 131 125 112 102 84 75 75 60 30 352 337 347 354 349 343 356 341 331 330 321
218 344 48 202 170 183 160 266 322 299 271 250 225 198 138 173 86 77 183 238 221 171 190 186 192 185 156 153 169 163 227 182 194 198 91 152 149 244 249 251 235 231 232 235 213 128 164 183 178 194 202 209 202 191 174 150 130 146 161 160 171 196 192 165 146 137 129 119 112 103 95 73 76 68 45 7 330 330 353 4 352 345 343 340 339 346
335 102 303 74 108 171 193 177 233 244 240 160 345 137 196 110 100 191 236 210 145 170 190 190 185 181 166 169 184 202 223 223 223 356 277 202 198 223 218 229 299 280 250 234 258 244 190 183 211 239 258 245 209 188 162 156 157 170 169 170 205 209 160 147 138 130 123 119 113 105 93 87 62 62 20 6 359 359 13 9 349 337 342 335 352 357
193 136 210 176 173 69 52 47 353 327 264 133 138 69 140 131 227 207 161 6 172 164 162 202 195 195 169 187 210 210 219 245 228 234 231 234 217 226 215 208 209 214 217 185 213 228 175 189 210 215 211 211 204 168 173 161 178 186 182 198 220 164 147 137 127 116 112 113 110 103 99 84 70 25 20 7 1 3 13 2 352 352 352 350 3 3
204 179 268 270 185 149 145 153 202 209 199 187 155 174 212 203 195 177 128 117 256 153 175 176 220 194 198 178 190 225 237 247 285 242 255 265 250 268 268 249 248 262 272 250 216 187 180 203 212 213 228 232 216 173 173 173 188 194 187 229 168 127 115 111 103 112 121 119 113 112 97 87 55 26 2 5 349 19 27 2 357 346 12 351 4 4
216 177 178 139 212 143 193 216 246 228 191 209 196 212 221 238 179 174 156 158 160 214 179 164 201 195 192 198 176 178 198 220 223 200 184 219 211 209 203 210 205 208 205 195 214 200 185 200 205 212 236 232 215 202 190 196 189 191 210 229 136 135 128 123 129 132 128 115 122 116 113 77 58 20 353 357 20 17 0 358 15 6 344 354 7 5
309 181 191 91 248 264 254 216 205 317 232 248 245 218 232 244 201 142 145 152 230 173 173 182 197 189 189 185 162 224 215 212 208 230 234 248 230 239 233 266 262 238 229 228 246 205 202 208 211 197 225 248 226 214 195 205 182 187 221 150 148 144 148 142 138 130 120 125 127 134 122 110 71 19 5 355 13 26 7 353 341 357 335 344 358 7
256 165 128 191 268 36 275 355 194 234 230 215 222 235 231 245 233 172 178 230 229 177 192 221 161 176 179 170 192 196 219 201 207 231 219 231 229 228 214 217 236 216 199 204 217 171 177 179 201 225 226 239 237 210 206 196 207 200 149 158 157 150 140 141 137 128 128 141 145 129 142 125 124 27 0 357 348 358 353 346 346 358 337 336 346 346
306 173 146 213 145 178 230 246 243 244 249 254 235 236 235 232 235 214 211 185 188 201 207 198 146 126 145 175 198 193 219 194 191 227 216 217 223 219 217 217 229 240 234 216 195 183 173 181 203 218 220 235 240 208 196 190 206 188 157 150 143 135 131 135 149 149 156 156 153 160 163 146 136 120 23 333 8 355 339 336 318 326 320 333 331 336
167 129 218 170 181 274 310 277 256 279 288 261 236 239 238 228 203 216 211 209 198 177 209 211 208 171 173 200 176 188 200 218 208 205 201 216 223 231 224 220 218 218 217 196 209 180 191 199 210 220 213 234 229 198 191 204 187 160 159 152 144 144 137 147 154 139 137 142 143 147 150 139 142 146 155 52 351 323 283 284 308 296 274 261 228 228
105 210 205 108 264 283 221 244 129 139 275 281 241 222 225 223 198 207 190 205 207 217 207 188 221 208 205 198 176 178 197 221 215 193 210 211 211 216 220 224 224 219 227 225 184 191 212 216 212 216 220 237 207 189 197 199 183 172 163 145 153 149 149 156 147 143 153 157 152 139 153 171 161 161 129 79 19 339 322 296 303 284 265 280 315 323
191 197 150 186 167 229 240 229 201 178 203 226 229 219 210 201 177 189 198 207 212 212 201 190 203 215 231 233 199 186 204 206 216 185 210 220 228 219 211 203 203 214 224 196 178 213 215 226 223 227 235 234 189 195 197 195 181 172 171 162 165 161 155 148 147 156 160 163 166 164 157 157 153 147 104 85 36 1 340 319 320 333 335 31 337 325